Location: Newark
(43.0000°N, 1.6781°W)
Time: 15:50:32
(UTC+00:00)

Transit 2A Rocket - Visible Passes

Search period start: 19 April 2021 00:00
Search period end: 29 April 2021 00:00
Orbit: 594 x 908 km, 66.7° (Epoch: 19 April)

Date Brightness Start Highest point End Pass type
(mag) Time Alt. Az. Time Alt. Az. Time Alt. Az.
19 Apr 7.2 00:17:07 10° NNW 00:18:04 16° NNW 00:18:04 16° NNW visible
19 Apr 7.0 23:34:41 10° NNW 23:36:23 21° N 23:36:23 21° N visible
20 Apr 6.8 22:52:27 10° N 22:54:44 21° NNE 22:54:44 21° NNE visible
21 Apr 7.5 00:34:28 10° NW 00:34:37 11° NW 00:34:37 11° NW visible
21 Apr 6.9 22:10:33 10° N 22:13:07 15° NE 22:13:07 15° NE visible
21 Apr 7.0 23:51:43 10° NNW 23:53:00 19° NNW 23:53:00 19° NNW visible
22 Apr 6.5 23:09:11 10° NNW 23:11:24 28° NNW 23:11:24 28° NNW visible
23 Apr 6.2 22:26:49 10° NNW 22:29:49 29° NNE 22:29:49 29° NNE visible
24 Apr 7.4 00:09:21 10° NW 00:09:42 12° NW 00:09:42 12° NW visible
24 Apr 6.5 21:44:41 10° N 21:48:05 21° NE 21:48:15 21° NE visible
24 Apr 6.8 23:26:25 10° NW 23:28:09 23° NW 23:28:09 23° NW visible
25 Apr 6.9 21:02:56 10° N 21:05:08 13° NE 21:06:43 11° ENE visible
25 Apr 5.9 22:43:45 10° NNW 22:46:37 39° NNW 22:46:37 39° NNW visible
26 Apr 5.5 22:01:16 10° NNW 22:05:07 44° NNE 22:05:07 44° NNE visible
26 Apr 7.3 23:44:25 10° WNW 23:45:01 13° WNW 23:45:01 13° WNW visible
27 Apr 6.0 21:18:59 10° N 21:22:53 28° NE 21:23:38 27° ENE visible
27 Apr 6.5 23:01:13 10° NW 23:03:32 26° WNW 23:03:32 26° WNW visible
28 Apr 6.6 20:36:56 10° N 20:40:02 18° NE 20:42:12 13° ENE visible
28 Apr 5.2 22:18:23 10° NW 22:22:06 55° WNW 22:22:06 55° WNW visible
